308  
ASUS41 KRLX 192210  
RWRRLX  
REGIONAL WEATHER ROUNDUP  
NATIONAL WEATHER SERVICE CHARLESTON WV  
500 PM EST WED FEB 19 2020  
 
NOTE: "FAIR" INDICATES FEW OR NO CLOUDS BELOW 12,000 FEET WITH NO  
SIGNIFICANT WEATHER AND/OR S TO VISIBILITY
.  
 
WVZ003-192300-  
NORTHERN PANHANDLE OF WEST VIRGINIA  
 
CITY SKY/WX TMP DP RH WIND PRES REMARKS
 
WHEELING FAIR 39 14 36 W13 30.41R  

 
 
WVZ009-192300-  
NORTHWEST WEST VIRGINIA  
 
CITY SKY/WX TMP DP RH WIND PRES REMARKS
 
PARKERSBURG FAIR 45 17 32 N7 30.42S  

 
 
WVZ006-192300-  
WESTERN WEST VIRGINIA  
 
CITY SKY/WX TMP DP RH WIND PRES REMARKS
 
HUNTINGTON FAIR 46 22 38 CALM 30.44S  

 
 
WVZ015-192300-  
WEST CENTRAL WEST VIRGINIA  
 
CITY SKY/WX TMP DP RH WIND PRES REMARKS
 
CHARLESTON FAIR 44 18 35 NW8 30.42S  

 
 
WVZ022-031-192300-  
NORTH CENTRAL WEST VIRGINIA  
 
CITY SKY/WX TMP DP RH WIND PRES REMARKS
 
MORGANTOWN FAIR 42 17 36 VRB5 30.39S  
CLARKSBURG FAIR 44 18 35 W9 30.39S  
BUCKHANNON FAIR 41 18 38 N8 30.38S  

 
 
WVZ025-035-042-045-192300-  
SOUTHERN WEST VIRGINIA  
 
CITY SKY/WX TMP DP RH WIND PRES REMARKS
 
BECKLEY FAIR 40 15 36 N9 30.36S  
LOGAN FAIR 43 18 36 CALM 30.40R  
PINEVILLE FAIR 45 18 33 MISG 30.43R  
BLUEFIELD FAIR 40 15 36 NW5 30.35R  
LEWISBURG SUNNY 41 14 33 NW9 30.34F  

 
 
WVZ047-192300-  
NORTHERN MOUNTAINS OF WEST VIRGINIA  
 
CITY SKY/WX TMP DP RH WIND PRES REMARKS
 
ELKINS FAIR 40 15 36 W9 30.37R  

 
 
WVZ052-192300-  
EASTERN PANHANDLE OF WEST VIRGINIA  
 
CITY SKY/WX TMP DP RH WIND PRES REMARKS
 
MARTINSBURG FAIR 47 15 27 W13 30.33R  
PETERSBURG FAIR 45 17 32 W10 30.37R  

 
 
SOUTHEAST OHIO/NORTHEAST KENTUCKY  
 
CITY SKY/WX TMP DP RH WIND PRES REMARKS
 
ATHENS FAIR 44 19 37 W7 30.43F  
ASHLAND FAIR 45 24 43 N7 30.46S  

 
 
 
CLICK HERE TO GO TO PREVIOUS BULLETINS.

The Nexlab WV Page
The Nexlab OH Page
The Nexlab KY Page
The Nexlab VA Page Main Text Page